Weather History for KCDA - January, 2014

Change the Weather History Date:

Monday, January 13, 2014

  Actual Average (K1V4) Record (K1V4)
Temperature  
Mean Temperature 34 °F 17 °F  
Max Temperature 41 °F 27 °F 58 °F (1932)
Min Temperature 28 °F 6 °F -27 °F (1912)
Degree Days  
Heating Degree Days 30 48  
Month to date heating degree days 620  
Since 1 July heating degree days 3573  
Cooling Degree Days 0 0  
Month to date cooling degree days 0  
Year to date cooling degree days 0  
Moisture  
Dew Point 23 °F    
Average Humidity 60    
Maximum Humidity 77    
Minimum Humidity 46    
Precipitation  
Precipitation 0.00 in 0.09 in 0.77 in (2005)
Month to date precipitation 1.05  
Year to date precipitation 1.05  
Sea Level Pressure  
Sea Level Pressure 29.90 in    
Wind  
Wind Speed 7 mph (South)    
Max Wind Speed 13 mph    
Max Gust Speed 21 mph    
Visibility 10 miles    
Events      
T = Trace of Precipitation, MM = Missing Value Source: NWS Daily Summary

Daily Weather History Graph

Daily Weather History Graph

Search for Another Location

Airport or City:

Trip Planner

Search our weather history database for the weather conditions in past years. The results will help you decide how hot, cold, wet, or windy it might be!

Date:

Astronomy

Jan. 13, 2014 Rise Set
Actual Time 7:22 AM EST 4:31 PM EST
Civil Twilight 6:49 AM EST 5:04 PM EST
Nautical Twilight 6:13 AM EST 5:40 PM EST
Astronomical Twilight 5:38 AM EST 6:15 PM EST
Moon 2:45 PM EST (1/13) 5:08 AM EST (1/13)
Length of Visible Light 10h 14m
Length of Day
9h 09m
Waxing Gibbous, 95% of the Moon is Illuminated
Jan 13
Waxing Gibbous
Jan 15
Full
Jan 24
Last Quarter
Jan 30
New
Feb 6
First Quarter

Hourly Weather History & Observations

Time (EST) Temp. Windchill Dew Point Humidity Pressure Visibility Wind Dir Wind Speed Gust Speed Precip Events Conditions
12:15 AM 33.3 °F 27.1 °F 23.2 °F 67% 29.89 in 10.0 mi West 6.9 mph - N/A   Overcast
12:35 AM 32.9 °F 26.7 °F 23.2 °F 67% 29.90 in 10.0 mi West 6.9 mph - N/A   Overcast
12:55 AM 32.9 °F 28.5 °F 23.2 °F 67% 29.91 in 10.0 mi West 4.6 mph - N/A   Overcast
1:15 AM 33.1 °F 26.9 °F 22.8 °F 66% 29.92 in 10.0 mi West 6.9 mph - N/A   Overcast
1:35 AM 33.1 °F 27.7 °F 22.6 °F 66% 29.93 in 10.0 mi West 5.8 mph - N/A   Overcast
1:55 AM 33.3 °F 28.9 °F 22.3 °F 64% 29.95 in 10.0 mi West 4.6 mph - N/A   Overcast
2:15 AM 33.1 °F 26.1 °F 22.1 °F 64% 29.95 in 10.0 mi West 8.1 mph - N/A   Overcast
2:35 AM 32.9 °F 29.8 °F 21.9 °F 64% 29.96 in 10.0 mi WSW 3.5 mph - N/A   Overcast
2:55 AM 33.1 °F 27.7 °F 21.7 °F 63% 29.96 in 10.0 mi West 5.8 mph - N/A   Overcast
3:15 AM 32.2 °F 27.7 °F 21.7 °F 65% 29.96 in 10.0 mi WSW 4.6 mph - N/A   Mostly Cloudy
3:35 AM 31.5 °F - 21.2 °F 66% 29.97 in 10.0 mi Calm Calm - N/A   Clear
3:55 AM 31.5 °F 28.1 °F 21.2 °F 66% 29.96 in 10.0 mi South 3.5 mph - N/A   Clear
4:15 AM 31.5 °F 26.8 °F 21.6 °F 67% 29.97 in 10.0 mi South 4.6 mph - N/A   Clear
4:35 AM 30.9 °F 26.2 °F 21.7 °F 69% 29.97 in 10.0 mi SSE 4.6 mph - N/A   Clear
4:55 AM 30.7 °F 26.0 °F 21.9 °F 70% 29.98 in 10.0 mi South 4.6 mph - N/A   Clear
5:15 AM 30.0 °F 24.1 °F 22.1 °F 72% 29.98 in 10.0 mi SSE 5.8 mph - N/A   Clear
5:35 AM 30.2 °F 25.4 °F 22.1 °F 72% 29.96 in 10.0 mi SE 4.6 mph - N/A   Clear
5:55 AM 30.0 °F 25.2 °F 21.9 °F 72% 29.97 in 10.0 mi SSE 4.6 mph - N/A   Clear
6:15 AM 29.5 °F 23.4 °F 21.9 °F 73% 29.97 in 10.0 mi SSE 5.8 mph - N/A   Clear
6:35 AM 28.9 °F 25.2 °F 22.1 °F 76% 29.97 in 10.0 mi SSE 3.5 mph - N/A   Clear
6:55 AM 28.8 °F 23.7 °F 21.9 °F 76% 29.98 in 10.0 mi South 4.6 mph - N/A   Clear
7:15 AM 29.3 °F 22.3 °F 22.1 °F 75% 29.98 in 10.0 mi SSE 6.9 mph - N/A   Clear
7:35 AM 29.1 °F 25.4 °F 22.6 °F 77% 29.98 in 10.0 mi SE 3.5 mph - N/A   Clear
7:55 AM 29.3 °F 22.3 °F 22.8 °F 77% 29.98 in 10.0 mi South 6.9 mph - N/A   Clear
8:15 AM 30.2 °F 23.4 °F 23.0 °F 75% 29.98 in 10.0 mi South 6.9 mph - N/A   Clear
8:35 AM 31.1 °F 24.5 °F 23.0 °F 72% 29.97 in 10.0 mi South 6.9 mph - N/A   Clear
8:55 AM 31.6 °F 27.0 °F 23.0 °F 70% 29.98 in 10.0 mi South 4.6 mph - N/A   Clear
9:15 AM 32.0 °F 24.8 °F 23.4 °F 70% 29.99 in 10.0 mi South 8.1 mph - N/A   Clear
9:35 AM 32.5 °F 24.8 °F 23.2 °F 68% 29.98 in 10.0 mi SSE 9.2 mph - N/A   Clear
9:55 AM 33.3 °F 26.4 °F 23.2 °F 67% 29.98 in 10.0 mi SSE 8.1 mph - N/A   Clear
10:15 AM 34.7 °F 28.8 °F 23.9 °F 65% 29.98 in 10.0 mi South 6.9 mph - N/A   Clear
10:35 AM 35.1 °F 27.9 °F 23.4 °F 62% 29.97 in 10.0 mi South 9.2 mph - N/A   Clear
10:55 AM 35.6 °F 27.5 °F 22.8 °F 60% 29.96 in 10.0 mi South 11.5 mph - N/A   Clear
11:15 AM 36.5 °F 28.2 °F 22.8 °F 58% 29.96 in 10.0 mi South 12.7 mph - N/A   Clear
11:35 AM 36.9 °F 29.1 °F 23.0 °F 57% 29.94 in 10.0 mi South 11.5 mph 17.3 mph N/A   Clear
11:55 AM 36.9 °F 29.1 °F 22.6 °F 56% 29.92 in 10.0 mi South 11.5 mph 20.7 mph N/A   Clear
12:15 PM 37.4 °F 29.3 °F 22.3 °F 54% 29.91 in 10.0 mi South 12.7 mph 20.7 mph N/A   Clear
12:35 PM 37.4 °F 29.8 °F 22.1 °F 54% 29.91 in 10.0 mi South 11.5 mph 17.3 mph N/A   Clear
12:55 PM 37.8 °F 30.2 °F 21.9 °F 53% 29.90 in 10.0 mi South 11.5 mph 18.4 mph N/A   Clear
1:15 PM 37.9 °F 30.0 °F 22.3 °F 53% 29.89 in 10.0 mi South 12.7 mph 16.1 mph N/A   Clear
1:35 PM 38.7 °F 32.4 °F 22.6 °F 53% 29.89 in 10.0 mi South 9.2 mph - N/A   Clear
1:55 PM 38.7 °F 34.3 °F 21.9 °F 51% 29.89 in 10.0 mi South 5.8 mph - N/A   Clear
2:15 PM 38.7 °F 32.9 °F 22.1 °F 51% 29.88 in 10.0 mi South 8.1 mph - N/A   Clear
2:35 PM 39.2 °F 33.0 °F 22.1 °F 50% 29.87 in 10.0 mi South 9.2 mph - N/A   Clear
2:55 PM 39.6 °F 33.0 °F 22.1 °F 50% 29.86 in 10.0 mi SSE 10.4 mph - N/A   Clear
3:15 PM 39.7 °F 34.3 °F 21.7 °F 49% 29.86 in 10.0 mi South 8.1 mph - N/A   Clear
3:35 PM 40.3 °F 35.5 °F 21.9 °F 48% 29.86 in 10.0 mi South 6.9 mph - N/A   Clear
3:55 PM 39.6 °F 34.7 °F 22.1 °F 50% 29.87 in 10.0 mi SSE 6.9 mph - N/A   Clear
4:15 PM 39.6 °F 34.7 °F 22.1 °F 50% 29.87 in 10.0 mi SSE 6.9 mph - N/A   Clear
4:35 PM 40.5 °F 36.5 °F 21.2 °F 46% 29.87 in 10.0 mi SSE 5.8 mph - N/A   Clear
4:55 PM 40.3 °F 34.4 °F 21.6 °F 47% 29.87 in 10.0 mi SSE 9.2 mph - N/A   Clear
5:15 PM 40.5 °F 35.8 °F 21.4 °F 47% 29.87 in 10.0 mi SSE 6.9 mph - N/A   Clear
5:35 PM 40.5 °F 35.8 °F 21.7 °F 47% 29.86 in 10.0 mi SSE 6.9 mph - N/A   Clear
5:55 PM 40.6 °F 35.4 °F 21.7 °F 47% 29.85 in 10.0 mi SSE 8.1 mph - N/A   Clear
6:15 PM 40.8 °F 35.0 °F 22.6 °F 48% 29.86 in 10.0 mi South 9.2 mph - N/A   Clear
6:35 PM 41.0 °F 35.2 °F 22.8 °F 48% 29.86 in 10.0 mi SE 9.2 mph - N/A   Clear
6:55 PM 40.6 °F 37.5 °F 23.0 °F 49% 29.85 in 10.0 mi SE 4.6 mph - N/A   Clear
7:15 PM 41.2 °F 36.0 °F 23.4 °F 49% 29.85 in 10.0 mi SSE 8.1 mph - N/A   Clear
7:35 PM 41.2 °F 37.3 °F 24.1 °F 51% 29.84 in 10.0 mi SE 5.8 mph - N/A   Clear
7:55 PM 41.5 °F 37.1 °F 24.8 °F 51% 29.84 in 10.0 mi SSE 6.9 mph - N/A   Clear
8:15 PM 41.4 °F 36.8 °F 24.8 °F 52% 29.83 in 10.0 mi SSE 6.9 mph - N/A   Clear
8:35 PM 41.2 °F 37.3 °F 25.2 °F 53% 29.82 in 10.0 mi SSE 5.8 mph - N/A   Clear
8:55 PM 41.5 °F 37.8 °F 25.7 °F 53% 29.83 in 10.0 mi SSE 5.8 mph - N/A   Clear
9:15 PM 41.2 °F 38.2 °F 25.5 °F 54% 29.81 in 10.0 mi SE 4.6 mph - N/A   Clear
9:35 PM 41.0 °F - 25.7 °F 55% 29.81 in 10.0 mi Calm Calm - N/A   Clear
9:55 PM 41.0 °F 38.0 °F 26.2 °F 56% 29.80 in 10.0 mi SSE 4.6 mph - N/A   Scattered Clouds
10:15 PM 41.0 °F 39.0 °F 26.2 °F 56% 29.80 in 10.0 mi SSE 3.5 mph - N/A   Mostly Cloudy
10:35 PM 41.0 °F 36.4 °F 27.0 °F 57% 29.79 in 10.0 mi SSE 6.9 mph - N/A   Mostly Cloudy
10:55 PM 41.0 °F 36.4 °F 27.3 °F 58% 29.79 in 10.0 mi SSE 6.9 mph - N/A   Mostly Cloudy
11:15 PM 41.0 °F 35.8 °F 27.9 °F 60% 29.79 in 10.0 mi South 8.1 mph - N/A   Overcast
11:35 PM 41.0 °F 35.8 °F 28.2 °F 60% 29.79 in 10.0 mi South 8.1 mph - N/A   Overcast
11:55 PM 41.0 °F 36.4 °F 28.4 °F 61% 29.78 in 10.0 mi South 6.9 mph - N/A   Overcast